TimeCST,TemperatureF,Dew PointF,Humidity,Sea Level PressureIn,VisibilityMPH,Wind Direction,Wind SpeedMPH,Gust SpeedMPH,PrecipitationIn,Events,Conditions,WindDirDegrees,DateUTC
12:51 AM,39.9,34.0,79,30.01,10.0,North,13.8,-,N/A,,Overcast,10,2013-12-06 06:51:00
1:51 AM,39.9,34.0,79,30.02,10.0,North,13.8,-,N/A,,Overcast,360,2013-12-06 07:51:00
2:51 AM,39.0,33.1,79,30.04,10.0,NNW,15.0,24.2,N/A,,Overcast,340,2013-12-06 08:51:00
3:51 AM,37.9,34.0,86,30.03,10.0,North,15.0,-,N/A,,Overcast,360,2013-12-06 09:51:00
4:51 AM,39.0,34.0,82,30.05,9.0,North,16.1,-,N/A,,Overcast,350,2013-12-06 10:51:00
5:51 AM,37.9,34.0,86,30.07,9.0,North,18.4,-,N/A,,Overcast,350,2013-12-06 11:51:00
6:51 AM,37.0,33.1,86,30.11,10.0,NNW,16.1,21.9,0.00,,Overcast,340,2013-12-06 12:51:00
7:51 AM,37.9,33.1,83,30.14,10.0,NNW,18.4,24.2,N/A,,Overcast,340,2013-12-06 13:51:00
8:51 AM,37.9,34.0,86,30.19,10.0,North,17.3,23.0,0.00,Rain,Light Rain,350,2013-12-06 14:51:00
9:51 AM,39.9,34.0,79,30.21,10.0,North,23.0,27.6,0.00,,Overcast,350,2013-12-06 15:51:00
10:51 AM,39.9,34.0,79,30.23,10.0,North,21.9,31.1,N/A,,Overcast,360,2013-12-06 16:51:00
11:27 AM,42.8,33.8,70,30.22,10.0,North,18.4,25.3,N/A,,Overcast,10,2013-12-06 17:27:00
11:51 AM,42.1,34.0,73,30.22,10.0,North,19.6,26.5,N/A,,Overcast,360,2013-12-06 17:51:00
12:51 PM,44.1,34.0,68,30.21,10.0,North,19.6,29.9,N/A,,Overcast,360,2013-12-06 18:51:00
1:51 PM,43.0,34.0,71,30.20,10.0,North,17.3,25.3,N/A,,Overcast,360,2013-12-06 19:51:00
2:18 PM,44.6,33.8,66,30.19,10.0,North,17.3,25.3,N/A,,Overcast,360,2013-12-06 20:18:00
2:51 PM,45.0,34.0,65,30.20,10.0,North,20.7,25.3,N/A,,Overcast,360,2013-12-06 20:51:00
3:34 PM,44.6,33.8,66,30.21,10.0,North,20.7,26.5,N/A,,Overcast,360,2013-12-06 21:34:00
3:51 PM,45.0,34.0,65,30.22,10.0,North,18.4,26.5,N/A,,Overcast,360,2013-12-06 21:51:00
4:51 PM,42.1,33.1,70,30.25,10.0,North,17.3,-,N/A,,Mostly Cloudy,350,2013-12-06 22:51:00
5:51 PM,39.0,30.9,73,30.29,10.0,North,21.9,29.9,N/A,,Overcast,350,2013-12-06 23:51:00
6:51 PM,37.0,28.9,73,30.32,10.0,North,13.8,25.3,N/A,,Overcast,350,2013-12-07 00:51:00
7:51 PM,36.0,28.9,76,30.34,10.0,North,16.1,23.0,N/A,,Mostly Cloudy,360,2013-12-07 01:51:00
8:51 PM,36.0,28.9,76,30.36,10.0,North,15.0,20.7,N/A,,Mostly Cloudy,350,2013-12-07 02:51:00
9:51 PM,35.1,28.0,76,30.37,10.0,North,18.4,25.3,N/A,,Overcast,360,2013-12-07 03:51:00
10:23 PM,35.6,26.6,70,30.38,10.0,North,17.3,24.2,N/A,,Scattered Clouds,360,2013-12-07 04:23:00
10:31 PM,35.6,26.6,70,30.38,10.0,North,15.0,24.2,N/A,,Mostly Cloudy,360,2013-12-07 04:31:00
10:51 PM,34.0,27.0,75,30.38,10.0,North,15.0,25.3,N/A,,Overcast,360,2013-12-07 04:51:00
11:51 PM,35.1,27.0,72,30.39,10.0,North,13.8,23.0,N/A,,Overcast,360,2013-12-07 05:51:00